Location: Hurecourt
(47.9030°N, 6.0653°E)
Time: 06:03:55
(UTC+00:00)

SWAS - Visible Passes

Search period start: 20 October 2020 00:00
Search period end: 30 October 2020 00:00
Orbit: 581 x 590 km, 69.9° (Epoch: 18 October)

Date Brightness Start Highest point End Pass type
(mag) Time Alt. Az. Time Alt. Az. Time Alt. Az.
20 Oct 5.4 03:21:45 44° ESE 03:21:45 44° ESE 03:25:50 10° NE visible
20 Oct 5.6 04:58:14 17° W 05:00:31 25° NW 05:04:08 10° N visible
21 Oct 5.0 03:29:04 58° ENE 03:29:04 58° ENE 03:32:40 10° NNE visible
21 Oct 6.0 05:05:33 14° WNW 05:07:27 18° NW 05:10:30 10° N visible
22 Oct 5.2 03:36:16 46° NNE 03:36:16 46° NNE 03:39:24 10° NNE visible
22 Oct 6.4 05:12:44 11° WNW 05:14:28 14° NW 05:16:40 10° N visible
23 Oct 5.6 03:43:22 33° N 03:43:22 33° N 03:46:02 10° NNE visible
23 Oct 6.7 05:21:13 10° NW 05:21:32 10° NW 05:21:51 10° NNW visible
24 Oct 7.8 02:13:55 10° NE 02:13:55 10° NE 02:13:55 10° NE visible
24 Oct 6.0 03:50:22 24° N 03:50:22 24° N 03:52:36 10° NNE visible
25 Oct 7.7 02:20:51 10° NE 02:20:51 10° NE 02:20:52 10° NE visible
25 Oct 6.4 03:57:18 18° NNW 03:57:18 18° NNW 03:59:04 10° N visible
26 Oct 6.6 04:04:12 14° NNW 04:04:12 14° NNW 04:05:24 10° N visible
27 Oct 6.9 04:11:02 11° NNW 04:11:02 11° NNW 04:11:29 10° N visible
